{"data":{"norad_id":64104,"intl_designator":"2025-110J","name":"STARLINK-34176","alt_names":[],"object_type":"PAYLOAD","status":"ACTIVE","operator":null,"country":"US","launch_date":"2025-05-23","launch_site_code":"AFWTR","launch_vehicle":null,"mission":null,"orbit_class":"UNKNOWN","rcs_meters":null,"size_class":null,"mass_kg":null,"dimensions":null,"purposes":["comms"],"wikipedia_slug":null,"has_3d_model":false,"image_url":null,"decayed_at":null,"tle_current":{"epoch":"2026-09-19T13:52:48.728928Z","epoch_age_seconds":223276,"freshness":"STALE","line1":"1 64104U 25110J   26262.57834177  .00023989  00000+0  71894-3 0  9996","line2":"2 64104  53.1600 205.7496 0001966  78.9374 281.1850 15.34395274 75577","mean_motion":15.34395274,"eccentricity":0.0001966,"inclination_deg":53.16,"raan_deg":205.7496,"arg_perigee_deg":78.9374,"mean_anomaly_deg":281.185,"bstar":0.00071894,"rev_number":7557,"period_min":93.848047136256,"perigee_km":461.37237495831,"apogee_km":464.06219886393,"semimajor_km":6840.8542869111,"source":"CELESTRAK","updated_at":"2026-09-21T09:00:35.228103Z"}}}